[[{"header":{"parameterUnit":"m.s-1","parameterCategory":1,"la1":30.2991,"la2":30.254,"lo1":-89.0895,"lo2":-89.0444,"dy":0.0017,"dx":0.0017,"nx":28,"ny":28,"refTime":"2024-08-16T09:00:00:Z","depth":0,"parameterNumber":2,"parameterNumberName":"U-component_of_WINDS"},"data":[0,0,0,0,0,0,0,0,0,0,0,0,0,0,0,0,0,0,0,0,0,0,0,0,0,0,0,0,0,0,0,0,0,0,0,0,0,0,0,0,0,0,0,0,0,0,0,0,0,0,0,0,0,0,0,0,0,0,-0.7552,-0.7552,0,-0.7548,-0.7548,-0.7547,-0.7529,-0.7529,-0.7528,-0.7528,-0.7524,-0.7524,-0.7525,0,0,0,0,0,0,0,0,0,0,0,0,0,-0.7546,-0.7546,-0.7552,-0.7552,-0.7552,-0.7548,-0.7548,-0.7547,-0.7529,-0.7529,-0.7528,-0.7528,-0.7524,-0.7524,-0.7525,0,0,0,0,0,0,0,0,0,0,0,0,0,-0.7546,-0.7547,-0.7552,-0.7542,-0.7542,-0.7548,-0.7548,-0.7547,-0.7529,-0.7529,-0.7528,-0.7528,-0.7524,-0.7524,-0.7525,-0.754,0,0,-0.7526,-0.7526,0,0,0,0,0,0,0,0,-0.7546,-0.7546,-0.7544,-0.7543,-0.7542,-0.7538,-0.7544,-0.7545,-0.753,-0.7534,-0.7528,-0.7527,-0.7529,-0.7529,-0.753,-0.754,-0.754,-0.7526,-0.7526,-0.7526,-0.7527,0,0,0,0,0,0,0,-0.7546,-0.7546,-0.755,-0.7544,-0.7543,-0.7539,-0.7538,-0.7544,-0.7535,-0.7534,-0.7532,-0.7532,-0.7529,-0.7529,-0.753,-0.754,-0.7526,-0.7526,-0.7527,-0.7527,-0.7562,-0.7563,0,0,0,0,0,0,-0.7547,-0.7546,-0.7551,-0.755,-0.7543,-0.7539,-0.7538,-0.754,-0.7535,-0.7534,-0.7532,-0.7531,-0.7529,-0.7529,-0.7529,-0.7547,-0.7526,-0.7527,-0.7527,-0.7562,-0.7563,-0.7563,0,0,0,0,0,0,-0.7547,-0.7548,-0.7551,-0.7548,-0.7548,-0.754,-0.7542,-0.754,-0.7541,-0.7534,-0.7533,-0.7535,-0.7529,-0.7529,-0.7538,-0.7547,-0.7527,-0.7527,-0.7561,-0.7562,-0.7563,-0.7583,0,0,0,0,0,0,-0.7547,-0.7548,-0.7554,-0.7548,-0.7548,-0.7559,-0.7543,-0.7541,-0.7542,-0.754,-0.7536,-0.7535,-0.7528,-0.7537,-0.7538,-0.7547,-0.7528,-0.756,-0.7561,-0.7563,-0.7582,-0.7585,-0.7587,0,0,0,0,0,-0.7547,-0.756,-0.7554,-0.7554,-0.7555,-0.7559,-0.7559,-0.7551,-0.7543,-0.7548,-0.7544,-0.7535,-0.7546,-0.7538,-0.7539,-0.7548,-0.7559,-0.7561,-0.7562,-0.758,-0.7584,-0.7587,0,0,0,0,0,0,-0.7566,-0.7559,-0.7552,-0.7563,-0.7562,-0.7556,-0.7563,-0.7555,-0.7557,-0.7555,-0.7545,-0.7544,-0.7554,-0.7552,-0.7544,-0.7563,-0.7551,-0.7553,-0.7564,-0.7568,-0.7571,-0.7571,-0.7528,0,0,0,0,0,-0.7572,-0.7576,-0.7569,-0.7579,-0.7579,-0.7571,-0.7573,-0.7567,-0.7565,-0.7564,-0.7561,-0.756,-0.7563,-0.7565,-0.7568,-0.7581,-0.758,-0.7588,-0.7591,-0.7593,-0.7595,-0.7602,-0.7606,-0.7568,-0.7568,-0.7568,0,0,-0.7583,-0.758,-0.7583,-0.7583,-0.7581,-0.7586,-0.7571,-0.7576,-0.758,-0.7565,-0.7573,-0.7571,-0.7569,-0.758,-0.7585,-0.7579,-0.7605,-0.7595,-0.7597,-0.7598,-0.7604,-0.7608,-0.7611,-0.7569,-0.7569,-0.7569,0,0,-0.7607,-0.7604,-0.7613,-0.7611,-0.7609,-0.7603,-0.7606,-0.7601,-0.7598,-0.7606,-0.7596,-0.76,-0.7605,-0.7604,-0.7605,-0.7628,-0.762,-0.7629,-0.7644,-0.7652,-0.7655,-0.7657,-0.7666,-0.7669,-0.7631,-0.7631,-0.7631,0,-0.7622,-0.7628,-0.7618,-0.7624,-0.7625,-0.7612,-0.7621,-0.762,-0.7618,-0.7619,-0.7612,-0.7619,-0.7617,-0.7628,-0.7634,-0.7634,-0.7637,-0.763,-0.7655,-0.7657,-0.766,-0.7668,-0.7671,-0.7632,-0.7632,-0.7632,-0.7632,0,-0.7646,-0.7651,-0.7658,-0.7657,-0.7658,-0.7666,-0.7657,-0.766,-0.7654,-0.7649,-0.7658,-0.7655,-0.7656,-0.7659,-0.7652,-0.7669,-0.7665,-0.7657,-0.7644,-0.7665,-0.7672,-0.7675,-0.7634,-0.7633,-0.7633,-0.7633,0,0,-0.7682,-0.7675,-0.7678,-0.7677,-0.7674,-0.7677,-0.7684,-0.7685,-0.7688,-0.7688,-0.7693,-0.7699,-0.7691,-0.7691,-0.7685,-0.7691,-0.771,-0.7682,-0.7682,-0.7688,-0.7728,-0.7735,-0.7739,-0.7705,-0.7705,-0.7706,-0.7729,0,-0.7704,-0.7716,-0.7707,-0.772,-0.7725,-0.7712,-0.7718,-0.7717,-0.7713,-0.7716,-0.7712,-0.7716,-0.7705,-0.7705,-0.7711,-0.7707,-0.7718,-0.7705,-0.771,-0.7711,-0.7712,-0.7743,-0.775,-0.7772,-0.7732,-0.7732,-0.7732,0,-0.7732,-0.7733,-0.7746,-0.7742,-0.7743,-0.7749,-0.7749,-0.7753,-0.7751,-0.7748,-0.7748,-0.774,-0.7747,-0.7735,-0.7744,-0.7735,-0.7737,-0.7735,-0.7736,-0.7737,-0.7723,-0.7744,-0.7778,-0.7782,-0.7737,-0.7736,-0.7736,0,-0.7758,-0.7762,-0.777,-0.777,-0.7765,-0.7769,-0.7767,-0.7765,-0.7766,-0.7767,-0.7768,-0.7769,-0.777,-0.7772,-0.7765,-0.7757,-0.7776,-0.7763,-0.7774,-0.7774,-0.7778,-0.7778,-0.7814,-0.7779,-0.7779,-0.7779,-0.7779,0,-0.7784,-0.7793,-0.7781,-0.7787,-0.7796,-0.7786,-0.7796,-0.7793,-0.7791,-0.7796,-0.7785,-0.779,-0.778,-0.7784,-0.7778,-0.7787,-0.7788,-0.7785,-0.7784,-0.7787,-0.7787,-0.7788,-0.7786,-0.778,-0.778,-0.7779,-0.7779,0,-0.7814,-0.7807,-0.7815,-0.7809,-0.7808,-0.7816,-0.7811,-0.7816,-0.7811,-0.7817,-0.7818,-0.7811,-0.7815,-0.7807,-0.7811,-0.7807,-0.782,-0.7815,-0.782,-0.7819,-0.7831,-0.783,-0.7868,-0.7873,-0.7835,-0.7835,-0.7835,0,-0.7832,-0.7838,-0.7833,-0.7835,-0.7834,-0.7838,-0.7839,-0.783,-0.7832,-0.783,-0.7835,-0.7838,-0.784,-0.7847,-0.7842,-0.7844,-0.7841,-0.7854,-0.7841,-0.7844,-0.7841,-0.7841,-0.7842,-0.7857,-0.7857,-0.7858,-0.7858,0,-0.7864,-0.786,-0.7862,-0.7863,-0.7865,-0.7865,-0.7865,-0.7868,-0.7858,-0.786,-0.7864,-0.7866,-0.7869,-0.7872,-0.7873,-0.7871,-0.7863,-0.7862,-0.7865,-0.7868,-0.787,-0.7869,-0.7828,-0.7861,-0.7861,-0.7861,-0.786,-0.786,-0.7889,-0.7894,-0.7891,-0.7894,-0.7893,-0.7892,-0.7897,-0.7892,-0.7895,-0.7897,-0.7891,-0.7896,-0.7894,-0.7895,-0.7894,-0.7898,-0.7892,-0.7896,-0.7897,-0.7898,-0.79,-0.7869,-0.7898,-0.7898,-0.7898,-0.7898,-0.7898,0,-0.7921,-0.7918,-0.7921,-0.7921,-0.7923,-0.7914,-0.7914,-0.7916,-0.7921,-0.7919,-0.7921,-0.7926,-0.7929,-0.7924,-0.7926,-0.7931,-0.7927,-0.7931,-0.7931,-0.7931,-0.7905,-0.7903,-0.7934,-0.7934,-0.7934,-0.7934,-0.7934,-0.7934,-0.7938,-0.7946,-0.7942,-0.795,-0.7947,-0.7952,-0.7952,-0.7952,-0.7951,-0.7956,-0.7958,-0.7955,-0.7952,-0.7954,-0.7957,-0.7955,-0.7957,-0.7963,-0.796,-0.7937,-0.7933,-0.793,-0.7927,-0.7963,-0.7963,-0.7986,-0.7986,-0.7986]},{"header":{"parameterUnit":"m.s-1","parameterCategory":1,"la1":30.2991,"la2":30.254,"lo1":-89.0895,"lo2":-89.0444,"dy":0.0017,"dx":0.0017,"nx":28,"ny":28,"refTime":"2024-08-16T09:00:00:Z","depth":0,"parameterNumber":3,"parameterNumberName":"V-component_of_WINDS"},"data":[0,0,0,0,0,0,0,0,0,0,0,0,0,0,0,0,0,0,0,0,0,0,0,0,0,0,0,0,0,0,0,0,0,0,0,0,0,0,0,0,0,0,0,0,0,0,0,0,0,0,0,0,0,0,0,0,0,0,5.2035,5.2035,0,5.2053,5.2053,5.2053,5.201,5.2009,5.2007,5.2006,5.2023,5.2024,5.2026,0,0,0,0,0,0,0,0,0,0,0,0,0,5.196,5.1962,5.2035,5.2035,5.2035,5.2053,5.2053,5.2053,5.201,5.2009,5.2007,5.2006,5.2022,5.2024,5.2026,0,0,0,0,0,0,0,0,0,0,0,0,0,5.1987,5.1962,5.2035,5.2016,5.2014,5.2053,5.2053,5.2054,5.2011,5.2009,5.2007,5.2005,5.2021,5.2024,5.2026,5.2083,0,0,5.2034,5.2035,0,0,0,0,0,0,0,0,5.1985,5.199,5.2018,5.2017,5.2016,5.2027,5.2033,5.2063,5.2011,5.2012,5.2006,5.2004,5.2026,5.2028,5.2036,5.2084,5.2085,5.2034,5.2036,5.2037,5.2038,0,0,0,0,0,0,0,5.1983,5.1988,5.2042,5.2019,5.2017,5.2006,5.2007,5.2038,5.203,5.2012,5.2009,5.2012,5.2025,5.2033,5.2036,5.2085,5.2034,5.2037,5.2038,5.2039,5.218,5.2182,0,0,0,0,0,0,5.1984,5.1987,5.2041,5.2042,5.1995,5.2009,5.201,5.2026,5.203,5.2028,5.2013,5.201,5.203,5.2033,5.2036,5.2102,5.2037,5.204,5.2041,5.2178,5.218,5.2183,0,0,0,0,0,0,5.1983,5.199,5.2041,5.2014,5.202,5.2012,5.203,5.2027,5.2036,5.2031,5.2029,5.2024,5.2028,5.2032,5.2072,5.2102,5.2041,5.2043,5.2175,5.2178,5.2182,5.2235,0,0,0,0,0,0,5.1981,5.1989,5.2012,5.2015,5.2021,5.2077,5.2031,5.2029,5.2041,5.2036,5.204,5.2039,5.2027,5.2068,5.2074,5.2104,5.2045,5.2172,5.2177,5.218,5.2231,5.224,5.2248,0,0,0,0,0,5.1978,5.2026,5.2013,5.202,5.2049,5.2079,5.2082,5.2068,5.2043,5.2065,5.2062,5.2039,5.2098,5.2073,5.2079,5.2111,5.217,5.2175,5.218,5.2227,5.2238,5.2248,0,0,0,0,0,0,5.2025,5.2026,5.2012,5.2061,5.2071,5.2071,5.2098,5.2081,5.2096,5.2091,5.2072,5.2074,5.2116,5.2117,5.2089,5.2165,5.213,5.2136,5.2163,5.2174,5.2182,5.218,5.2047,0,0,0,0,0,5.2042,5.2067,5.2065,5.2109,5.2115,5.2106,5.2118,5.2107,5.2115,5.2118,5.2118,5.2126,5.2146,5.216,5.2179,5.2231,5.2231,5.2256,5.2264,5.2271,5.2277,5.2303,5.2314,5.2199,5.2199,5.2199,0,0,5.2075,5.2079,5.2095,5.2119,5.2124,5.215,5.2109,5.2138,5.2156,5.2122,5.2159,5.216,5.2167,5.2213,5.2233,5.2215,5.2309,5.2278,5.2283,5.2285,5.231,5.2321,5.233,5.2202,5.2202,5.2201,0,0,5.2149,5.2155,5.2192,5.2198,5.2207,5.2201,5.221,5.2214,5.2213,5.225,5.2225,5.2246,5.2282,5.2288,5.2296,5.2372,5.2351,5.2379,5.2423,5.2449,5.2458,5.2466,5.2493,5.2502,5.2384,5.2384,5.2385,0,5.2189,5.2228,5.2213,5.2243,5.2254,5.2225,5.2261,5.2268,5.2283,5.229,5.227,5.2314,5.2317,5.2364,5.2382,5.239,5.2399,5.2378,5.2458,5.2466,5.2473,5.2498,5.2508,5.2388,5.2387,5.2387,5.2387,0,5.2276,5.2303,5.2331,5.2347,5.2361,5.2394,5.2383,5.2399,5.2386,5.2382,5.2419,5.2422,5.2441,5.2451,5.2439,5.2496,5.2484,5.2462,5.2425,5.2488,5.2511,5.252,5.2392,5.2391,5.239,5.2389,0,0,5.238,5.2387,5.2397,5.2403,5.2411,5.2431,5.2463,5.2481,5.2495,5.2506,5.2531,5.2562,5.2541,5.255,5.2538,5.2561,5.2621,5.2536,5.2536,5.2551,5.2682,5.2698,5.271,5.2607,5.2609,5.261,5.2681,0,5.2452,5.2507,5.2495,5.2549,5.2572,5.2545,5.2573,5.258,5.2577,5.2596,5.2592,5.2614,5.2585,5.259,5.2612,5.2609,5.2646,5.2604,5.263,5.2631,5.2628,5.2722,5.2739,5.2806,5.269,5.2692,5.2693,0,5.2544,5.2559,5.2616,5.2619,5.2628,5.2653,5.2669,5.2688,5.2695,5.2691,5.2702,5.2685,5.2715,5.268,5.2721,5.2692,5.2702,5.2701,5.2704,5.2705,5.2665,5.2724,5.2827,5.2837,5.2707,5.2706,5.2705,0,5.2613,5.2647,5.2685,5.2691,5.2697,5.2715,5.2718,5.2723,5.2735,5.2748,5.2755,5.2772,5.2781,5.2794,5.2782,5.2757,5.2824,5.2788,5.2821,5.2821,5.2836,5.2835,5.294,5.2844,5.2844,5.2844,5.2843,0,5.2694,5.273,5.2716,5.2739,5.2778,5.2762,5.2801,5.28,5.2806,5.2828,5.2805,5.2826,5.281,5.2829,5.282,5.2855,5.2859,5.2856,5.2853,5.2857,5.2858,5.2863,5.2858,5.2846,5.2846,5.2845,5.2845,0,5.2778,5.277,5.2809,5.2811,5.2812,5.2841,5.2842,5.2863,5.2858,5.2886,5.2892,5.2884,5.2906,5.2895,5.2918,5.2912,5.2956,5.2947,5.2954,5.2951,5.2984,5.2981,5.3096,5.311,5.3006,5.3007,5.3008,0,5.283,5.2856,5.2861,5.2875,5.2879,5.2901,5.2913,5.2899,5.2912,5.2922,5.2942,5.2962,5.2977,5.3012,5.3008,5.3025,5.3016,5.3055,5.3018,5.3022,5.3015,5.3013,5.3016,5.3062,5.3063,5.3064,5.3065,0,5.2923,5.2918,5.2936,5.2953,5.2968,5.298,5.2991,5.3003,5.2989,5.3005,5.3027,5.3039,5.3062,5.3081,5.3096,5.3098,5.3079,5.3077,5.3085,5.309,5.3092,5.309,5.2973,5.3074,5.3073,5.3073,5.3072,5.3072,5.2991,5.3013,5.302,5.3041,5.3048,5.3058,5.3078,5.3075,5.3094,5.3112,5.3102,5.3128,5.3133,5.3151,5.3156,5.3175,5.3159,5.3172,5.3175,5.3178,5.3182,5.309,5.3178,5.3177,5.3177,5.3177,5.3177,0,5.3082,5.3085,5.3105,5.312,5.3137,5.3118,5.3129,5.3143,5.3166,5.3174,5.3189,5.3214,5.3233,5.3231,5.3247,5.3263,5.3255,5.3268,5.3266,5.3267,5.3195,5.3186,5.3274,5.3274,5.3274,5.3274,5.3274,5.3274,5.3132,5.3168,5.3163,5.3202,5.3204,5.323,5.3237,5.3246,5.3252,5.3281,5.3297,5.3295,5.3298,5.3315,5.3331,5.333,5.3337,5.3353,5.3349,5.3282,5.3272,5.3263,5.3254,5.3355,5.3355,5.3418,5.3419,5.3419]}]]